Starlink 1663

operational
NORAD ID: 46535 Int'l Des: 2020-070 Owner: SPXS Country: US Constellation: starlink
LEOCIRCULARSTARLINK_TYPE

About Starlink 1663

Description loading...

Live Position

Loading 3D Globe...

Upcoming Passes

Altitude History

Altitude vs Time

uPlot chart will show altitude changes over time

Two-Line Element Set

1 46535U 20070D 25352.77612134 .00092339 00000-0 19806-2 0 9992
2 46535 53.0501 166.3503 0010379 163.1105 197.0248 15.43933337287492
Epoch: Dec 18, 2025 • Age: 12 hours

Current Status

Altitude 444.8 km
Velocity 7.64 km/s
Sub-Earth Point -13.14°S, 39.05°W
Launch Date Oct 6, 2020
Age 5.1 years
Type internet

Technical Details

Classification Payload
Mass 260.00 kg
Dry Mass 248.00 kg
Total Mass 260.00 kg
Length 0.20 m
Diameter 2.80 m
Span 9.00 m
Shape Box + pan
Manufacturer SPXS
Bus Type Starlink
Phase Status In Orbit
Owner/State SPXS/US

Large Constellations

Loading constellations...